Tracking 31027 objects as of 19-Jul-2025
HD Live streaming from Space Station
objects crossing your sky now

STARLINK-32241

Track STARLINK-32241 now!
10-day predictions
STARLINK-32241 is classified as:


NORAD ID: 60437
Int'l Code: 2024-144N
Perigee: 481.7 km
Apogee: 483.0 km
Inclination: 53.2 °
Period: 94.1 minutes
Semi major axis: 6853 km
RCS: Unknown
Launch date: August 12, 2024
Source: United States (US)
Launch site: AIR FORCE EASTERN TEST RANGE (AFETR)
Your satellite tracking list
STARLINK-1243
Track 1 satellite(s)




NASA's NSSDC Master Catalog

Two Line Element Set (TLE):
1 60437U 24144N   25199.36014526  .00000468  00000-0  27931-4 0  9992
2 60437  53.1584 225.4701 0000929  87.9196 272.1911 15.30193735 53434
Source of the keplerian elements: AFSPC